Regional Weather Roundup
Issued by NWS Charleston, SC

Current Version | Previous Version | Graphics & Text | Print | Product List | Glossary On
Versions: 1 2 3 4 5 6 7 8 9 10 11 12 13 14 15 16 17 18 19 20 21 22 23 24 25 26 27 28 29 30 31 32 33 34 35 36 37 38 39 40 41 42 43 44 45 46 47 48 49 50
000
ASUS42 KCHS 261911
RWRCHS

REGIONAL WEATHER ROUNDUP
NATIONAL WEATHER SERVICE CHARLESTON SC
200 PM EST THU FEB 26 2015

NOTE: "FAIR" INDICATES FEW OR NO CLOUDS BELOW 12,000 FEET WITH NO
SIGNIFICANT WEATHER AND/OR OBSTRUCTIONS TO VISIBILITY.

NOT ALL STATIONS ARE QUALITY CONTROLLED BY THE NATIONAL
WEATHER SERVICE. USE DATA WITH CAUTION...ESPECIALLY
DEWPOINT OBSERVATIONS.

SCZ027-030-031-034>040-042>050-262000-
...SOUTHEAST SOUTH CAROLINA...

CITY           SKY/WX    TMP DP  RH WIND       PRES   REMARKS
N CHARLESTON   CLOUDY    43  37  79 N13       29.90R
WATERFRONT PRK   N/A     43 N/A N/A N10G16      N/A
MOUNT PLEASANT LGT RAIN  43  37  81 NW12      29.91R
PINOPOLIS        N/A     43  37  81 N9        29.84R
MONCKS CORNER  CLOUDY    43  36  75 N7          N/A
SUMMERVILLE    CLOUDY    41  37  87 NW8       29.92R
BEAUFORT MCAS  PTSUNNY   49  39  68 NW13      29.90F
BEAUFORT ARPT  FAIR      48  41  76 NW12      29.90S
HILTON HEAD IS PTSUNNY   46  39  76 NW8G17    29.91R
WALTERBORO     NOT AVBL
ALLENDALE      CLOUDY    46  39  76 VRB7      29.91R

...SOUTHERN MIDLANDS AND PEE DEE...

CITY           SKY/WX    TMP DP  RH WIND       PRES   REMARKS
GEORGETOWN     NOT AVBL
KINGSTREE      NOT AVBL
ORANGEBURG     CLOUDY    43  34  70 N9        29.91R
BARNWELL       CLOUDY    45  39  81 N8        29.92R
AIKEN          CLOUDY    43  37  81 N10       29.93F
MANNING        CLOUDY    41  37  87 N9        29.91R
COLUMBIA       CLOUDY    43  34  70 NW6       29.91S
SUMTER         CLOUDY    40  34  80 N6        29.89S WCI  36
FLORENCE       CLOUDY    41  33  73 N9        29.90S
MYRTLE BEACH   CLOUDY    41  34  75 N13       29.90R
N MYRTLE BEACH CLOUDY    40  33  76 N8        29.88R WCI  34

$$

GAZ063-065-086>088-099>101-113>116-118-119-134>141-150-262000-
...SOUTHEAST GEORGIA...

CITY           SKY/WX    TMP DP  RH WIND       PRES   REMARKS
SAVANNAH ARPT  CLOUDY    47  38  71 NW12      29.92F
HUNTER AAF     CLOUDY    47  38  72 NW12      29.89F
FORT STEWART   CLOUDY    47  39  72 N9        29.90F
STATESBORO     CLOUDY    47  39  74 NW6       29.92S
SYLVANIA       CLOUDY    47  41  77 N6        29.92R
CLAXTON        CLOUDY    46  41  81 NW8       29.93S

...CSRA...CENTRAL AND FAR SOUTHEAST GEORGIA...

CITY           SKY/WX    TMP DP  RH WIND       PRES   REMARKS
THOMSON        CLOUDY    46  40  82 CALM      29.96R
AUGUSTA-BUSH   CLOUDY    45  36  70 N9        29.92S
AUGUSTA-DANIEL CLOUDY    45  36  70 VRB5      29.92S
SWAINSBORO     CLOUDY    46  34  61 NW6       29.95R
VIDALIA        CLOUDY    46  39  76 N8        29.94S
EASTMAN        CLOUDY    47  41  77 NW3       29.97S
HAZLEHURST     CLOUDY    47  41  80 N10       29.93S
ALMA           CLOUDY    47  38  71 NW7       29.93F
WAYCROSS       CLOUDY    52  43  72 N8        29.92F
JESUP          CLOUDY    50  43  76 NW9       29.93S
BAXLEY         CLOUDY    46  41  81 NW9       29.93F
BRUNSWICK      PTSUNNY   54  41  62 NW9       29.92S
SAINT SIMONS   MOSUNNY   53  40  61 NW8       29.90F

$$

SCZ027-028-034-036>038-045-046-048>050-GAZ119-141-262000-
...LAKE AND SUPPLEMENTAL COASTAL OBSERVATIONS...

STATION/POSITION TIME  TEMP    WIND        PRES    WAVE   SWELL
                       AIR SEA DIR/SP/G            HT/PER HT/PER/DIR
                 (UTC) (F)     (DEG/KT/KT) (MB)    (FT/S) (FT/S/D)
UPR LAKE MARION  NOT AVBL
WINYAH BAY       NOT AVBL
LAKE MURRAY      1800   40     360/  2/  7 1012.5S
ACE BASIN NERRS  NOT AVBL
FORT PULASKI     1800   43 49  320/ 14/ 18 1013.1F
SAPELO ISLAND    1800   49     320/  9     1013.0R

$$

ANZ835-935-AMZ111-154-330-350-352-354-370-450-454-472-262000-
...C-MAN AND BUOY OBSERVATIONS...

STATION/POSITION TIME  TEMP    WIND        PRES    WAVE   SWELL
                       AIR SEA DIR/SP/G            HT/PER HT/PER/DIR
                 (UTC) (F)     (DEG/KT/KT) (MB)    (FT/S) (FT/S/D)
BUOY 41004       1850   44 66  330/ 16/ 19 1011.0R   6/ 8   5/ 8
BUOY 41008       1850   45 53  340/ 12/ 16 1012.8R   3/ 7   2/150/ 7
FOLLY BEACH CMAN 1900   43     330/  6/ 10 1012.9R
CAPERS NEARSHORE NOT AVBL
FRIPP NEARSHORE  1800   43     320/ 10/ 14 1012.4R


STATION/POSITION TIME  TEMP    WIND        PRES    WAVE   SWELL
                       AIR SEA DIR/SP/G            HT/PER HT/PER/DIR
                 (UTC) (F)     (DEG/KT/KT) (MB)    (FT/S) (FT/S/D)
5E ST. MARYS GA  1821      54                N/A     3/ 7   2/120/11
FRYING PAN BUOY  1850   41 58  340/ 14/ 19 1011.1R   9/10   7/180/10
BUOY 41025       NOT AVBL
CAPE LOOKOUT NC  1900   38     350/ 18/ 22 1009.7R
BUOY 41002       1850   69 71  270/ 21/ 27 1007.3R  15/ 9  11/220/ 9
BUOY 41010       1820   72 74  270/ 19/ 25 1010.0F
ST AUGUSTINE FL  1900   56     330/ 12/ 14 1012.3R


$$



USA.gov is the U.S. government's official web portal to all federal, state and local government web resources and services.